Starlink 2126

decayed
NORAD ID: 47726 Int'l Des: 2021-017 Owner: SPXS Country: US Constellation: starlink
LEOCIRCULAR
Gruppe

Über Starlink 2126

Beschreibung wird geladen...

Höhenverlauf

Altitude vs Time

uPlot chart will show altitude changes over time

Zweizeiliger Elementsatz

1 47726U 21017E 24366.22517091 .17538066 12471-4 45749-3 0 9992
2 47726 53.0234 266.1655 0003881 220.9675 280.2887 16.45695708213054
Epoch: 31. Dez. 2024 • Age: 7459 hours

Aktueller Status

Position data unavailable
Startdatum 4. März 2021
Alter 4.6 years
Verglühungsdatum 31. Dez. 2024
Typ internet

Technische Details

Klassifizierung Payload
Masse 260.00 kg
Trockenmasse 248.00 kg
Gesamtmasse 260.00 kg
Länge 0.20 m
Durchmesser 2.80 m
Spannweite 9.00 m
Form Box + pan
Hersteller SPXS
Bus-Typ Starlink
Phasenstatus Unknown Transfer Status
Besitzer/Staat SPXS/US

Große Konstellationen

Loading constellations...